| time (UTC) | temp C | wind direction | speed KPH | gust KPH | rain 1hr cm | rain 24hr cm | rain mn cm | humidity % | barometer mb |
| 20260507112406 | 1 | 312 | 0.0 | 0.0 | 0.00 | 0.00 | 0.00 | 80 | 1009.7 |
| 20260507111904 | 1 | 327 | 0.0 | 0.0 | 0.00 | 0.00 | 0.00 | 79 | 1009.7 |
| 20260507111400 | 1 | 315 | 0.0 | 0.0 | 0.00 | 0.00 | 0.00 | 80 | 1009.3 |
| 20260507110856 | 1 | 334 | 0.0 | 0.0 | 0.00 | 0.00 | 0.00 | 80 | 1009.6 |
| 20260507110352 | 2 | 331 | 0.0 | 0.0 | 0.00 | 0.00 | 0.00 | 79 | 1009.6 |
| 20260507105850 | 2 | 236 | 3.2 | 3.2 | 0.00 | 0.00 | 0.00 | 77 | 1009.6 |
| 20260507105346 | 2 | 279 | 1.6 | 1.6 | 0.00 | 0.00 | 0.00 | 76 | 1009.3 |
| 20260507104843 | 2 | 295 | 0.0 | 1.6 | 0.00 | 0.00 | 0.00 | 77 | 1009.3 |
| 20260507104340 | 2 | 2 | 1.6 | 1.6 | 0.00 | 0.00 | 0.00 | 76 | 1009.3 |
| 20260507103836 | 3 | 312 | 0.0 | 0.0 | 0.00 | 0.00 | 0.00 | 73 | 1009.4 |
| 20260507103332 | 2 | 287 | 1.6 | 3.2 | 0.00 | 0.00 | 0.00 | 76 | 1009.2 |
| 20260507102829 | 1 | 317 | 0.0 | 0.0 | 0.00 | 0.00 | 0.00 | 79 | 1009.3 |
| 20260507102325 | 1 | 296 | 1.6 | 1.6 | 0.00 | 0.00 | 0.00 | 79 | 1009.6 |
| 20260507101822 | 1 | 307 | 0.0 | 1.6 | 0.00 | 0.00 | 0.00 | 79 | 1009.3 |
| 20260507101321 | 1 | 318 | 0.0 | 0.0 | 0.00 | 0.00 | 0.00 | 81 | 1009.4 |
| 20260507100819 | 1 | 320 | 0.0 | 0.0 | 0.00 | 0.00 | 0.00 | 81 | 1009.4 |
| 20260507100317 | 1 | 349 | 0.0 | 0.0 | 0.00 | 0.00 | 0.00 | 82 | 1009.4 |
| 20260507095815 | 0 | 330 | 0.0 | 0.0 | 0.00 | 0.00 | 0.00 | 82 | 1009.4 |
| 20260507095311 | 0 | 311 | 1.6 | 1.6 | 0.00 | 0.00 | 0.00 | 82 | 1009.2 |
| 20260507094808 | 1 | 312 | 0.0 | 0.0 | 0.00 | 0.00 | 0.00 | 80 | 1009.2 |
| 20260507094305 | 1 | 312 | 0.0 | 0.0 | 0.00 | 0.00 | 0.00 | 82 | 1009.2 |
| 20260507093802 | 1 | 340 | 0.0 | 0.0 | 0.00 | 0.00 | 0.00 | 81 | 1009.3 |
| 20260507093300 | 0 | 339 | 0.0 | 0.0 | 0.00 | 0.00 | 0.00 | 82 | 1009.4 |
| 20260507092758 | 1 | 297 | 1.6 | 1.6 | 0.00 | 0.00 | 0.00 | 80 | 1009.4 |
| 20260507092253 | 1 | 306 | 0.0 | 0.0 | 0.00 | 0.00 | 0.00 | 80 | 1009.6 |
| 20260507091750 | 1 | 325 | 0.0 | 0.0 | 0.00 | 0.00 | 0.00 | 80 | 1009.4 |
| 20260507091247 | 1 | 338 | 0.0 | 0.0 | 0.00 | 0.00 | 0.00 | 80 | 1009.6 |
| 20260507090747 | 1 | 320 | 0.0 | 0.0 | 0.00 | 0.00 | 0.00 | 80 | 1009.4 |
| 20260507090244 | 1 | 300 | 1.6 | 1.6 | 0.00 | 0.00 | 0.00 | 79 | 1009.4 |
| 20260507085741 | 1 | 305 | 1.6 | 1.6 | 0.00 | 0.00 | 0.00 | 78 | 1009.3 |
| 20260507085238 | 2 | 332 | 0.0 | 0.0 | 0.00 | 0.00 | 0.00 | 79 | 1009.4 |
| 20260507084735 | 2 | 327 | 0.0 | 0.0 | 0.00 | 0.00 | 0.00 | 78 | 1009.3 |
| 20260507084231 | 2 | 314 | 0.0 | 0.0 | 0.00 | 0.00 | 0.00 | 77 | 1009.2 |
| 20260507083729 | 2 | 303 | 0.0 | 0.0 | 0.00 | 0.00 | 0.00 | 77 | 1009.6 |
| 20260507083226 | 2 | 303 | 0.0 | 1.6 | 0.00 | 0.00 | 0.00 | 76 | 1009.7 |
| 20260507082722 | 2 | 303 | 0.0 | 0.0 | 0.00 | 0.00 | 0.00 | 77 | 1009.7 |
| 20260507082217 | 2 | 303 | 0.0 | 0.0 | 0.00 | 0.00 | 0.00 | 76 | 1009.4 |
| 20260507081715 | 3 | 304 | 0.0 | 0.0 | 0.00 | 0.00 | 0.00 | 75 | 1009.4 |
| 20260507081211 | 3 | 303 | 0.0 | 0.0 | 0.00 | 0.00 | 0.00 | 75 | 1009.4 |
| 20260507080707 | 3 | 302 | 1.6 | 1.6 | 0.00 | 0.00 | 0.00 | 74 | 1009.3 |
| 20260507080204 | 3 | 305 | 0.0 | 0.0 | 0.00 | 0.00 | 0.00 | 75 | 1009.4 |
| 20260507075659 | 3 | 304 | 0.0 | 1.6 | 0.00 | 0.00 | 0.00 | 75 | 1009.6 |
| 20260507075155 | 3 | 305 | 0.0 | 0.0 | 0.00 | 0.00 | 0.00 | 73 | 1009.3 |
| 20260507074652 | 4 | 305 | 0.0 | 0.0 | 0.00 | 0.00 | 0.00 | 73 | 1009.4 |
| 20260507074150 | 4 | 305 | 0.0 | 0.0 | 0.00 | 0.00 | 0.00 | 72 | 1009.3 |
| 20260507073646 | 4 | 306 | 0.0 | 0.0 | 0.00 | 0.00 | 0.00 | 72 | 1009.4 |
| 20260507073142 | 5 | 306 | 0.0 | 0.0 | 0.00 | 0.00 | 0.00 | 72 | 1009.1 |
| 20260507072641 | 5 | 311 | 0.0 | 1.6 | 0.00 | 0.00 | 0.00 | 70 | 1009.2 |
| 20260507072138 | 5 | 315 | 0.0 | 0.0 | 0.00 | 0.00 | 0.00 | 69 | 1009.3 |
| 20260507071635 | 6 | 315 | 0.0 | 0.0 | 0.00 | 0.00 | 0.00 | 70 | 1009.6 |
| 20260507071131 | 6 | 304 | 0.0 | 0.0 | 0.00 | 0.00 | 0.00 | 69 | 1009.3 |
| 20260507070628 | 6 | 316 | 0.0 | 0.0 | 0.00 | 0.00 | 0.00 | 67 | 1009.3 |
| 20260507070125 | 7 | 315 | 0.0 | 0.0 | 0.00 | 0.00 | 0.00 | 65 | 1009.0 |
| 20260507065621 | 7 | 293 | 1.6 | 1.6 | 0.00 | 0.00 | 0.00 | 64 | 1009.1 |
| 20260507065119 | 7 | 323 | 0.0 | 0.0 | 0.00 | 0.00 | 0.00 | 67 | 1009.2 |
| 20260507064616 | 6 | 314 | 0.0 | 0.0 | 0.00 | 0.00 | 0.00 | 68 | 1009.0 |
| 20260507064115 | 6 | 320 | 0.0 | 0.0 | 0.00 | 0.00 | 0.00 | 69 | 1009.1 |
| 20260507063612 | 6 | 334 | 0.0 | 0.0 | 0.00 | 0.00 | 0.00 | 67 | 1009.2 |
| 20260507063109 | 7 | 8 | 0.0 | 0.0 | 0.00 | 0.00 | 0.00 | 67 | 1009.0 |
| 20260507062606 | 6 | 333 | 0.0 | 0.0 | 0.00 | 0.00 | 0.00 | 65 | 1008.4 |
| 20260507062103 | 6 | 302 | 0.0 | 0.0 | 0.00 | 0.00 | 0.00 | 65 | 1008.3 |
| 20260507061601 | 7 | 300 | 1.6 | 1.6 | 0.00 | 0.00 | 0.00 | 66 | 1008.3 |
| 20260507061059 | 7 | 310 | 0.0 | 1.6 | 0.00 | 0.00 | 0.00 | 65 | 1008.4 |
| 20260507060557 | 7 | 311 | 0.0 | 0.0 | 0.00 | 0.00 | 0.00 | 65 | 1008.4 |
| 20260507060053 | 7 | 311 | 0.0 | 1.6 | 0.00 | 0.00 | 0.00 | 66 | 1008.4 |
| 20260507055548 | 7 | 312 | 0.0 | 0.0 | 0.00 | 0.00 | 0.00 | 65 | 1008.4 |
| 20260507055044 | 7 | 312 | 0.0 | 0.0 | 0.00 | 0.00 | 0.00 | 64 | 1008.2 |
| 20260507054540 | 7 | 315 | 0.0 | 0.0 | 0.00 | 0.00 | 0.00 | 64 | 1008.5 |
| 20260507054038 | 7 | 327 | 0.0 | 0.0 | 0.00 | 0.00 | 0.00 | 64 | 1008.4 |
| 20260507053536 | 7 | 337 | 0.0 | 0.0 | 0.00 | 0.00 | 0.00 | 61 | 1008.3 |
| 20260507053034 | 7 | 309 | 0.0 | 0.0 | 0.00 | 0.00 | 0.00 | 62 | 1008.1 |
| 20260507052531 | 7 | 308 | 0.0 | 1.6 | 0.00 | 0.00 | 0.00 | 61 | 1007.8 |
| 20260507052028 | 8 | 315 | 0.0 | 0.0 | 0.00 | 0.00 | 0.00 | 60 | 1007.8 |
| 20260507051526 | 8 | 315 | 0.0 | 0.0 | 0.00 | 0.00 | 0.00 | 58 | 1007.7 |
| 20260507051022 | 8 | 315 | 0.0 | 0.0 | 0.00 | 0.00 | 0.00 | 57 | 1007.8 |
| 20260507050519 | 8 | 315 | 0.0 | 0.0 | 0.00 | 0.00 | 0.00 | 57 | 1008.0 |
| 20260507050015 | 9 | 326 | 0.0 | 0.0 | 0.00 | 0.00 | 0.00 | 56 | 1007.8 |
| 20260507045512 | 10 | 326 | 0.0 | 0.0 | 0.00 | 0.00 | 0.00 | 55 | 1008.0 |
| 20260507045009 | 10 | 326 | 1.6 | 1.6 | 0.00 | 0.00 | 0.00 | 55 | 1007.8 |
| 20260507044506 | 10 | 344 | 0.0 | 1.6 | 0.00 | 0.00 | 0.00 | 52 | 1007.6 |
| 20260507044003 | 10 | 313 | 0.0 | 0.0 | 0.00 | 0.00 | 0.00 | 54 | 1007.6 |
| 20260507043459 | 10 | 351 | 0.0 | 0.0 | 0.00 | 0.00 | 0.00 | 53 | 1007.5 |
| 20260507042955 | 10 | 322 | 0.0 | 0.0 | 0.00 | 0.00 | 0.00 | 53 | 1007.7 |
| 20260507042452 | 10 | 329 | 1.6 | 3.2 | 0.00 | 0.00 | 0.00 | 57 | 1007.3 |
| 20260507041948 | 10 | 322 | 0.0 | 0.0 | 0.00 | 0.00 | 0.00 | 59 | 1007.6 |
| 20260507041444 | 10 | 341 | 0.0 | 0.0 | 0.00 | 0.00 | 0.00 | 60 | 1007.4 |
| 20260507040942 | 10 | 315 | 0.0 | 0.0 | 0.00 | 0.00 | 0.00 | 60 | 1007.3 |
| 20260507040437 | 10 | 310 | 1.6 | 1.6 | 0.00 | 0.00 | 0.00 | 60 | 1006.9 |
| 20260507035933 | 10 | 315 | 0.0 | 0.0 | 0.00 | 0.00 | 0.00 | 59 | 1006.8 |
| 20260507035430 | 11 | 352 | 0.0 | 0.0 | 0.00 | 0.00 | 0.00 | 59 | 1006.8 |
| 20260507034927 | 11 | 312 | 0.0 | 0.0 | 0.00 | 0.00 | 0.00 | 57 | 1006.9 |
| 20260507034424 | 12 | 334 | 0.0 | 0.0 | 0.00 | 0.00 | 0.00 | 55 | 1006.7 |
| 20260507033922 | 12 | 312 | 0.0 | 1.6 | 0.00 | 0.00 | 0.00 | 53 | 1006.7 |
| 20260507033420 | 12 | 315 | 1.6 | 3.2 | 0.00 | 0.00 | 0.00 | 49 | 1006.3 |
| 20260507032916 | 12 | 318 | 1.6 | 1.6 | 0.00 | 0.00 | 0.00 | 54 | 1006.2 |
| 20260507032413 | 12 | 322 | 0.0 | 0.0 | 0.00 | 0.00 | 0.00 | 55 | 1006.5 |
| 20260507031909 | 12 | 331 | 0.0 | 0.0 | 0.00 | 0.00 | 0.00 | 54 | 1006.2 |
| 20260507031406 | 12 | 315 | 0.0 | 0.0 | 0.00 | 0.00 | 0.00 | 54 | 1006.5 |
| 20260507030903 | 12 | 318 | 0.0 | 0.0 | 0.00 | 0.00 | 0.00 | 55 | 1006.3 |
| 20260507030400 | 12 | 307 | 1.6 | 3.2 | 0.00 | 0.00 | 0.00 | 53 | 1006.0 |
| 20260507025857 | 12 | 318 | 0.0 | 0.0 | 0.00 | 0.00 | 0.00 | 53 | 1006.2 |
| 20260507025354 | 12 | 309 | 0.0 | 0.0 | 0.00 | 0.00 | 0.00 | 50 | 1005.7 |
| 20260507024852 | 12 | 320 | 0.0 | 0.0 | 0.00 | 0.00 | 0.00 | 51 | 1005.9 |
| 20260507024349 | 13 | 311 | 0.0 | 0.0 | 0.00 | 0.00 | 0.00 | 51 | 1005.8 |
| 20260507023844 | 13 | 314 | 0.0 | 0.0 | 0.00 | 0.00 | 0.00 | 53 | 1006.0 |
| 20260507023342 | 13 | 311 | 0.0 | 0.0 | 0.00 | 0.00 | 0.00 | 50 | 1005.7 |
| 20260507022839 | 14 | 311 | 0.0 | 0.0 | 0.00 | 0.00 | 0.00 | 48 | 1005.9 |
| 20260507022335 | 14 | 311 | 0.0 | 0.0 | 0.00 | 0.00 | 0.00 | 46 | 1005.4 |
| 20260507021831 | 15 | 312 | 0.0 | 0.0 | 0.00 | 0.00 | 0.00 | 47 | 1005.5 |
| 20260507021327 | 15 | 340 | 0.0 | 0.0 | 0.00 | 0.00 | 0.00 | 45 | 1005.3 |
| 20260507020825 | 15 | 322 | 0.0 | 1.6 | 0.00 | 0.00 | 0.00 | 45 | 1005.4 |
| 20260507020321 | 15 | 319 | 0.0 | 0.0 | 0.00 | 0.00 | 0.00 | 44 | 1005.3 |
| 20260507015819 | 16 | 323 | 0.0 | 0.0 | 0.00 | 0.00 | 0.00 | 41 | 1005.2 |
| 20260507015316 | 17 | 45 | 0.0 | 1.6 | 0.00 | 0.00 | 0.00 | 39 | 1005.0 |
| 20260507014813 | 17 | 330 | 0.0 | 0.0 | 0.00 | 0.00 | 0.00 | 40 | 1005.2 |
| 20260507014309 | 17 | 25 | 1.6 | 1.6 | 0.00 | 0.00 | 0.00 | 36 | 1004.9 |
| 20260507013806 | 17 | 315 | 0.0 | 0.0 | 0.00 | 0.00 | 0.00 | 36 | 1005.0 |
| 20260507013303 | 17 | 342 | 0.0 | 0.0 | 0.00 | 0.00 | 0.00 | 38 | 1004.9 |
| 20260507012800 | 17 | 310 | 0.0 | 0.0 | 0.00 | 0.00 | 0.00 | 38 | 1005.2 |
| 20260507012256 | 17 | 285 | 3.2 | 3.2 | 0.00 | 0.00 | 0.00 | 36 | 1004.7 |
| 20260507011754 | 17 | 290 | 6.4 | 9.7 | 0.00 | 0.00 | 0.00 | 36 | 1005.0 |
| 20260507011250 | 17 | 318 | 0.0 | 0.0 | 0.00 | 0.00 | 0.00 | 36 | 1005.0 |
| 20260507010749 | 17 | 262 | 6.4 | 6.4 | 0.00 | 0.00 | 0.00 | 34 | 1004.9 |
| 20260507010246 | 17 | 10 | 1.6 | 3.2 | 0.00 | 0.00 | 0.00 | 34 | 1004.7 |
| 20260507005743 | 17 | 279 | 3.2 | 4.8 | 0.00 | 0.00 | 0.00 | 35 | 1004.6 |
| 20260507005240 | 17 | 263 | 9.7 | 12.9 | 0.00 | 0.00 | 0.00 | 34 | 1005.0 |
| 20260507004736 | 17 | 262 | 9.7 | 12.9 | 0.00 | 0.00 | 0.00 | 34 | 1005.0 |
| 20260507004234 | 17 | 238 | 6.4 | 9.7 | 0.00 | 0.00 | 0.00 | 35 | 1004.7 |
| 20260507003730 | 17 | 314 | 3.2 | 3.2 | 0.00 | 0.00 | 0.00 | 34 | 1004.6 |
| 20260507003226 | 17 | 263 | 4.8 | 9.7 | 0.00 | 0.00 | 0.00 | 34 | 1004.9 |
| 20260507002722 | 17 | 262 | 6.4 | 9.7 | 0.00 | 0.00 | 0.00 | 34 | 1004.6 |
| 20260507002218 | 17 | 297 | 3.2 | 4.8 | 0.00 | 0.00 | 0.00 | 34 | 1004.7 |
| 20260507001715 | 17 | 132 | 6.4 | 9.7 | 0.00 | 0.00 | 0.00 | 35 | 1004.5 |
| 20260507001212 | 18 | 246 | 11.3 | 14.5 | 0.00 | 0.00 | 0.00 | 33 | 1004.6 |
| 20260507000708 | 18 | 269 | 9.7 | 11.3 | 0.00 | 0.00 | 0.00 | 33 | 1004.5 |
| 20260507000205 | 18 | 274 | 4.8 | 6.4 | 0.00 | 0.00 | 0.00 | 34 | 1004.4 |
| 20260506235701 | 18 | 251 | 6.4 | 9.7 | 0.00 | 0.00 | 0.00 | 33 | 1004.5 |
| 20260506235157 | 18 | 135 | 6.4 | 6.4 | 0.00 | 0.00 | 0.00 | 34 | 1004.4 |
| 20260506234654 | 18 | 257 | 11.3 | 16.1 | 0.00 | 0.00 | 0.00 | 33 | 1004.6 |
| 20260506234151 | 18 | 339 | 0.0 | 1.6 | 0.00 | 0.00 | 0.00 | 35 | 1004.3 |
| 20260506233648 | 18 | 312 | 4.8 | 6.4 | 0.00 | 0.00 | 0.00 | 33 | 1004.4 |
| 20260506233145 | 18 | 240 | 1.6 | 1.6 | 0.00 | 0.00 | 0.00 | 34 | 1004.5 |
| 20260506232641 | 18 | 276 | 6.4 | 9.7 | 0.00 | 0.00 | 0.00 | 33 | 1004.4 |
| 20260506232136 | 19 | 314 | 6.4 | 12.9 | 0.00 | 0.00 | 0.00 | 33 | 1004.6 |
| 20260506231634 | 19 | 286 | 6.4 | 6.4 | 0.00 | 0.00 | 0.00 | 33 | 1004.4 |
| 20260506231132 | 19 | 349 | 3.2 | 4.8 | 0.00 | 0.00 | 0.00 | 32 | 1004.3 |
| 20260506230629 | 19 | 276 | 8.0 | 12.9 | 0.00 | 0.00 | 0.00 | 32 | 1004.5 |
| 20260506230126 | 20 | 320 | 1.6 | 3.2 | 0.00 | 0.00 | 0.00 | 32 | 1004.4 |
| 20260506225622 | 20 | 329 | 0.0 | 1.6 | 0.00 | 0.00 | 0.00 | 33 | 1004.4 |
| 20260506225119 | 20 | 348 | 1.6 | 1.6 | 0.00 | 0.00 | 0.00 | 30 | 1004.6 |
| 20260506224615 | 20 | 318 | 6.4 | 9.7 | 0.00 | 0.00 | 0.00 | 29 | 1004.4 |
| 20260506224112 | 21 | 302 | 8.0 | 11.3 | 0.00 | 0.00 | 0.00 | 30 | 1004.9 |
| 20260506223608 | 21 | 218 | 4.8 | 6.4 | 0.00 | 0.00 | 0.00 | 29 | 1004.4 |
| 20260506223105 | 21 | 213 | 8.0 | 11.3 | 0.00 | 0.00 | 0.00 | 29 | 1004.4 |
| 20260506222602 | 22 | 291 | 12.9 | 16.1 | 0.00 | 0.00 | 0.00 | 28 | 1004.1 |
| 20260506222058 | 21 | 250 | 6.4 | 9.7 | 0.00 | 0.00 | 0.00 | 29 | 1004.3 |
| 20260506221556 | 21 | 246 | 11.3 | 16.1 | 0.00 | 0.00 | 0.00 | 28 | 1004.6 |
| 20260506221054 | 21 | 277 | 6.4 | 14.5 | 0.00 | 0.00 | 0.00 | 29 | 1004.5 |
| 20260506220549 | 20 | 253 | 6.4 | 6.4 | 0.00 | 0.00 | 0.00 | 30 | 1004.6 |
| 20260506220045 | 20 | 232 | 4.8 | 4.8 | 0.00 | 0.00 | 0.00 | 29 | 1004.6 |
| 20260506215542 | 21 | 252 | 9.7 | 16.1 | 0.00 | 0.00 | 0.00 | 29 | 1004.5 |
| 20260506215037 | 21 | 305 | 4.8 | 9.7 | 0.00 | 0.00 | 0.00 | 29 | 1004.7 |
| 20260506214535 | 21 | 225 | 4.8 | 6.4 | 0.00 | 0.00 | 0.00 | 30 | 1004.7 |
| 20260506214032 | 21 | 293 | 6.4 | 11.3 | 0.00 | 0.00 | 0.00 | 28 | 1004.7 |
| 20260506213530 | 21 | 219 | 14.5 | 22.5 | 0.00 | 0.00 | 0.00 | 28 | 1005.1 |
| 20260506213027 | 21 | 251 | 4.8 | 6.4 | 0.00 | 0.00 | 0.00 | 29 | 1004.5 |
| 20260506212523 | 22 | 17 | 1.6 | 3.2 | 0.00 | 0.00 | 0.00 | 28 | 1004.9 |
| 20260506212019 | 22 | 138 | 4.8 | 6.4 | 0.00 | 0.00 | 0.00 | 28 | 1004.9 |
| 20260506211514 | 20 | 268 | 4.8 | 6.4 | 0.00 | 0.00 | 0.00 | 31 | 1004.9 |
| 20260506211012 | 21 | 297 | 6.4 | 11.3 | 0.00 | 0.00 | 0.00 | 29 | 1004.7 |
| 20260506210508 | 21 | 192 | 4.8 | 4.8 | 0.00 | 0.00 | 0.00 | 29 | 1005.0 |
| 20260506210005 | 21 | 114 | 8.0 | 9.7 | 0.00 | 0.00 | 0.00 | 31 | 1005.0 |
| 20260506205501 | 21 | 284 | 6.4 | 6.4 | 0.00 | 0.00 | 0.00 | 30 | 1005.2 |
| 20260506204952 | 20 | 349 | 1.6 | 1.6 | 0.00 | 0.00 | 0.00 | 29 | 1005.2 |
| 20260506204450 | 20 | 260 | 12.9 | 16.1 | 0.00 | 0.00 | 0.00 | 29 | 1005.3 |
| 20260506203947 | 21 | 337 | 6.4 | 12.9 | 0.00 | 0.00 | 0.00 | 29 | 1005.4 |
| 20260506203444 | 20 | 325 | 3.2 | 4.8 | 0.00 | 0.00 | 0.00 | 31 | 1005.3 |
| 20260506202941 | 20 | 252 | 4.8 | 12.9 | 0.00 | 0.00 | 0.00 | 30 | 1005.5 |
| 20260506202438 | 20 | 252 | 8.0 | 12.9 | 0.00 | 0.00 | 0.00 | 30 | 1005.4 |
| 20260506201934 | 20 | 325 | 1.6 | 3.2 | 0.00 | 0.00 | 0.00 | 30 | 1005.5 |
| 20260506201432 | 21 | 184 | 3.2 | 3.2 | 0.00 | 0.00 | 0.00 | 30 | 1005.7 |
| 20260506200928 | 20 | 262 | 6.4 | 9.7 | 0.00 | 0.00 | 0.00 | 29 | 1005.8 |
| 20260506200425 | 20 | 271 | 8.0 | 14.5 | 0.00 | 0.00 | 0.00 | 29 | 1005.5 |
| 20260506195921 | 20 | 335 | 9.7 | 12.9 | 0.00 | 0.00 | 0.00 | 30 | 1005.9 |
| 20260506195418 | 20 | 258 | 12.9 | 16.1 | 0.00 | 0.00 | 0.00 | 29 | 1005.5 |
| 20260506194915 | 20 | 304 | 1.6 | 3.2 | 0.00 | 0.00 | 0.00 | 31 | 1005.9 |
| 20260506194412 | 20 | 225 | 6.4 | 12.9 | 0.00 | 0.00 | 0.00 | 29 | 1005.9 |
| 20260506193909 | 20 | 320 | 1.6 | 1.6 | 0.00 | 0.00 | 0.00 | 31 | 1005.9 |
| 20260506193406 | 20 | 314 | 4.8 | 6.4 | 0.00 | 0.00 | 0.00 | 30 | 1006.0 |
| 20260506192902 | 20 | 238 | 4.8 | 6.4 | 0.00 | 0.00 | 0.00 | 28 | 1005.7 |
| 20260506192359 | 20 | 247 | 6.4 | 9.7 | 0.00 | 0.00 | 0.00 | 29 | 1005.7 |
| 20260506191856 | 21 | 316 | 3.2 | 3.2 | 0.00 | 0.00 | 0.00 | 29 | 1006.0 |
| 20260506191352 | 19 | 259 | 4.8 | 9.7 | 0.00 | 0.00 | 0.00 | 30 | 1005.9 |
| 20260506190849 | 19 | 277 | 6.4 | 9.7 | 0.00 | 0.00 | 0.00 | 30 | 1006.0 |
| 20260506190345 | 20 | 270 | 3.2 | 6.4 | 0.00 | 0.00 | 0.00 | 29 | 1006.2 |
| 20260506185843 | 20 | 235 | 3.2 | 6.4 | 0.00 | 0.00 | 0.00 | 29 | 1006.1 |
| 20260506185340 | 20 | 340 | 1.6 | 1.6 | 0.00 | 0.00 | 0.00 | 30 | 1006.1 |
| 20260506184836 | 20 | 237 | 9.7 | 12.9 | 0.00 | 0.00 | 0.00 | 32 | 1006.1 |
| 20260506184334 | 20 | 25 | 4.8 | 4.8 | 0.00 | 0.00 | 0.00 | 30 | 1006.5 |
| 20260506183831 | 20 | 269 | 4.8 | 6.4 | 0.00 | 0.00 | 0.00 | 29 | 1006.3 |
| 20260506183326 | 20 | 259 | 3.2 | 3.2 | 0.00 | 0.00 | 0.00 | 30 | 1006.3 |
| 20260506182824 | 20 | 154 | 4.8 | 4.8 | 0.00 | 0.00 | 0.00 | 29 | 1006.1 |
| 20260506182321 | 19 | 225 | 9.7 | 11.3 | 0.00 | 0.00 | 0.00 | 31 | 1006.7 |
| 20260506181819 | 19 | 309 | 6.4 | 11.3 | 0.00 | 0.00 | 0.00 | 30 | 1006.6 |
| 20260506181316 | 19 | 227 | 3.2 | 6.4 | 0.00 | 0.00 | 0.00 | 29 | 1006.7 |
| 20260506180813 | 20 | 264 | 3.2 | 4.8 | 0.00 | 0.00 | 0.00 | 30 | 1006.6 |
| 20260506180309 | 19 | 326 | 3.2 | 3.2 | 0.00 | 0.00 | 0.00 | 31 | 1006.6 |
| 20260506175806 | 18 | 300 | 6.4 | 6.4 | 0.00 | 0.00 | 0.00 | 29 | 1006.7 |
| 20260506175306 | 18 | 249 | 1.6 | 1.6 | 0.00 | 0.00 | 0.00 | 31 | 1006.7 |
| 20260506174800 | 18 | 296 | 3.2 | 4.8 | 0.00 | 0.00 | 0.00 | 30 | 1006.8 |
| 20260506174257 | 19 | 296 | 1.6 | 1.6 | 0.00 | 0.00 | 0.00 | 30 | 1006.6 |
| 20260506173754 | 19 | 15 | 6.4 | 11.3 | 0.00 | 0.00 | 0.00 | 30 | 1006.7 |
| 20260506173251 | 18 | 264 | 4.8 | 6.4 | 0.00 | 0.00 | 0.00 | 31 | 1006.8 |
| 20260506172748 | 18 | 241 | 8.0 | 9.7 | 0.00 | 0.00 | 0.00 | 31 | 1006.9 |
| 20260506172245 | 18 | 235 | 3.2 | 4.8 | 0.00 | 0.00 | 0.00 | 31 | 1006.9 |
| 20260506171742 | 18 | 247 | 6.4 | 9.7 | 0.00 | 0.00 | 0.00 | 31 | 1007.0 |
| 20260506171239 | 18 | 348 | 0.0 | 1.6 | 0.00 | 0.00 | 0.00 | 31 | 1006.9 |
| 20260506170737 | 18 | 270 | 1.6 | 9.7 | 0.00 | 0.00 | 0.00 | 32 | 1007.0 |
| 20260506170233 | 18 | 306 | 4.8 | 4.8 | 0.00 | 0.00 | 0.00 | 31 | 1007.2 |
| 20260506165732 | 17 | 316 | 3.2 | 4.8 | 0.00 | 0.00 | 0.00 | 31 | 1007.2 |
| 20260506165228 | 17 | 256 | 6.4 | 9.7 | 0.00 | 0.00 | 0.00 | 33 | 1007.4 |
| 20260506164726 | 17 | 244 | 9.7 | 14.5 | 0.00 | 0.00 | 0.00 | 31 | 1007.3 |
| 20260506164222 | 18 | 347 | 1.6 | 1.6 | 0.00 | 0.00 | 0.00 | 34 | 1007.2 |
| 20260506163719 | 17 | 128 | 3.2 | 4.8 | 0.00 | 0.00 | 0.00 | 32 | 1007.4 |
| 20260506163214 | 17 | 340 | 3.2 | 3.2 | 0.00 | 0.00 | 0.00 | 31 | 1007.5 |
| 20260506162710 | 17 | 284 | 4.8 | 6.4 | 0.00 | 0.00 | 0.00 | 33 | 1007.2 |
| 20260506162208 | 17 | 336 | 1.6 | 3.2 | 0.00 | 0.00 | 0.00 | 33 | 1007.5 |
| 20260506161705 | 17 | 318 | 1.6 | 1.6 | 0.00 | 0.00 | 0.00 | 36 | 1007.4 |
| 20260506161202 | 16 | 292 | 3.2 | 3.2 | 0.00 | 0.00 | 0.00 | 34 | 1007.4 |
| 20260506160700 | 16 | 265 | 3.2 | 4.8 | 0.00 | 0.00 | 0.00 | 40 | 1007.5 |
| 20260506160156 | 15 | 125 | 3.2 | 3.2 | 0.00 | 0.00 | 0.00 | 39 | 1007.7 |
| 20260506155655 | 14 | 6 | 0.0 | 1.6 | 0.00 | 0.00 | 0.00 | 43 | 1007.7 |
| 20260506155151 | 12 | 346 | 0.0 | 0.0 | 0.00 | 0.00 | 0.00 | 44 | 1008.1 |
| 20260506153253 | 12 | 343 | 0.0 | 0.0 | 0.00 | 0.00 | 0.00 | 42 | 1008.1 |
| 20260506152750 | 12 | 348 | 0.0 | 0.0 | 0.00 | 0.00 | 0.00 | 45 | 1007.7 |
| 20260506152248 | 12 | 354 | 0.0 | 0.0 | 0.00 | 0.00 | 0.00 | 47 | 1007.8 |
| 20260506151747 | 11 | 21 | 1.6 | 1.6 | 0.00 | 0.00 | 0.00 | 47 | 1008.1 |
| 20260506151243 | 11 | 336 | 0.0 | 0.0 | 0.00 | 0.00 | 0.00 | 48 | 1007.8 |
| 20260506150739 | 10 | 335 | 0.0 | 0.0 | 0.00 | 0.00 | 0.00 | 51 | 1008.1 |
| 20260506150237 | 9 | 305 | 0.0 | 0.0 | 0.00 | 0.00 | 0.00 | 55 | 1008.3 |
| 20260506145734 | 8 | 305 | 0.0 | 0.0 | 0.00 | 0.00 | 0.00 | 56 | 1008.4 |
| 20260506145230 | 8 | 305 | 0.0 | 0.0 | 0.00 | 0.00 | 0.00 | 56 | 1008.4 |
| 20260506144727 | 7 | 305 | 0.0 | 0.0 | 0.00 | 0.00 | 0.00 | 62 | 1008.3 |
| 20260506144224 | 6 | 305 | 0.0 | 0.0 | 0.00 | 0.00 | 0.00 | 66 | 1008.3 |
| 20260506143722 | 5 | 305 | 0.0 | 0.0 | 0.00 | 0.00 | 0.00 | 69 | 1008.4 |
| 20260506143219 | 4 | 305 | 0.0 | 0.0 | 0.00 | 0.00 | 0.00 | 71 | 1008.5 |
| 20260506142718 | 3 | 305 | 0.0 | 0.0 | 0.00 | 0.00 | 0.00 | 71 | 1008.4 |
| 20260506142215 | 2 | 305 | 0.0 | 0.0 | 0.00 | 0.00 | 0.00 | 73 | 1008.4 |
| 20260506141713 | 1 | 305 | 0.0 | 0.0 | 0.00 | 0.00 | 0.00 | 75 | 1009.0 |
| 20260506141211 | 1 | 305 | 0.0 | 0.0 | 0.00 | 0.00 | 0.00 | 75 | 1008.9 |
| 20260506140709 | 0 | 305 | 0.0 | 0.0 | 0.00 | 0.00 | 0.00 | 77 | 1008.6 |
| 20260506140205 | 0 | 305 | 0.0 | 0.0 | 0.00 | 0.00 | 0.00 | 79 | 1008.9 |
| 20260506135702 | 0 | 306 | 0.0 | 0.0 | 0.00 | 0.00 | 0.00 | 82 | 1008.9 |
| 20260506135158 | -1 | 305 | 0.0 | 0.0 | 0.00 | 0.00 | 0.00 | 82 | 1009.0 |
| 20260506134655 | -1 | 306 | 0.0 | 0.0 | 0.00 | 0.00 | 0.00 | 83 | 1008.8 |
| 20260506134151 | -1 | 305 | 0.0 | 0.0 | 0.00 | 0.00 | 0.00 | 84 | 1008.9 |
| 20260506133648 | -2 | 306 | 0.0 | 0.0 | 0.00 | 0.00 | 0.00 | 85 | 1009.1 |
| 20260506133145 | -2 | 306 | 0.0 | 0.0 | 0.00 | 0.00 | 0.00 | 85 | 1009.0 |
| 20260506132643 | -2 | 306 | 0.0 | 0.0 | 0.00 | 0.00 | 0.00 | 85 | 1009.2 |
| 20260506132139 | -3 | 306 | 0.0 | 0.0 | 0.00 | 0.00 | 0.00 | 86 | 1009.0 |
| 20260506131637 | -3 | 306 | 0.0 | 0.0 | 0.00 | 0.00 | 0.00 | 87 | 1009.2 |
| 20260506131133 | -3 | 306 | 0.0 | 0.0 | 0.00 | 0.00 | 0.00 | 86 | 1009.2 |
| 20260506130630 | -3 | 306 | 0.0 | 0.0 | 0.00 | 0.00 | 0.00 | 87 | 1009.0 |
| 20260506130127 | -4 | 306 | 0.0 | 0.0 | 0.00 | 0.00 | 0.00 | 87 | 1009.1 |
| 20260506125626 | -4 | 305 | 0.0 | 0.0 | 0.00 | 0.00 | 0.00 | 87 | 1009.0 |
| 20260506125123 | -4 | 305 | 0.0 | 0.0 | 0.00 | 0.00 | 0.00 | 87 | 1009.1 |
| 20260506124621 | -5 | 305 | 0.0 | 0.0 | 0.00 | 0.00 | 0.00 | 87 | 1009.0 |
| 20260506124118 | -5 | 306 | 0.0 | 0.0 | 0.00 | 0.00 | 0.00 | 88 | 1009.2 |
| 20260506123616 | -5 | 306 | 0.0 | 0.0 | 0.00 | 0.00 | 0.00 | 88 | 1009.2 |
| 20260506123114 | -5 | 306 | 0.0 | 0.0 | 0.00 | 0.00 | 0.00 | 87 | 1009.2 |
| 20260506122610 | -5 | 306 | 0.0 | 0.0 | 0.00 | 0.00 | 0.00 | 87 | 1009.1 |
| 20260506122108 | -5 | 305 | 0.0 | 0.0 | 0.00 | 0.00 | 0.00 | 87 | 1009.1 |
| 20260506121606 | -5 | 308 | 0.0 | 0.0 | 0.00 | 0.00 | 0.00 | 87 | 1009.3 |
| 20260506121102 | -5 | 309 | 0.0 | 0.0 | 0.00 | 0.00 | 0.00 | 87 | 1009.2 |
| 20260506120600 | -5 | 309 | 0.0 | 0.0 | 0.00 | 0.00 | 0.00 | 87 | 1009.3 |
| 20260506120057 | -5 | 309 | 0.0 | 0.0 | 0.00 | 0.00 | 0.00 | 87 | 1009.3 |
| 20260506115555 | -5 | 309 | 0.0 | 0.0 | 0.00 | 0.00 | 0.00 | 87 | 1009.1 |
| 20260506115053 | -5 | 308 | 0.0 | 0.0 | 0.00 | 0.00 | 0.00 | 86 | 1009.3 |
| 20260506114550 | -5 | 309 | 0.0 | 0.0 | 0.00 | 0.00 | 0.00 | 87 | 1009.3 |
| 20260506114048 | -5 | 314 | 0.0 | 0.0 | 0.00 | 0.00 | 0.00 | 86 | 1009.4 |
| 20260506113546 | -5 | 314 | 0.0 | 0.0 | 0.00 | 0.00 | 0.00 | 87 | 1009.8 |
| 20260506113043 | -5 | 314 | 0.0 | 0.0 | 0.00 | 0.00 | 0.00 | 86 | 1009.7 |